欢迎来到中国化学会官方网站!

新会员申请 | 登录 | 关于我们

所在位置:中国化学会 > 会议专题 > 中国化学会第30届学术年会

年会报告日程表  下载:中国化学会第30届学术年会日程手册.pdf

会议名称:中国化学会第30届学术年会
分会名称:第二分会:分析装置及交叉学科新方法
 注:PL-大会特邀报告(Plenary Lecture) I-分会邀请报告(Invited) O-口头报告(Oral) P-墙报(Poster) A-自由交流
2016-07-02
会场:综合教学1号楼综158 主持人:汪尔康,牛利
09:00-09:2502-I-001汪尔康新型双极电化学体系添加到我的日程
09:25-09:5002-I-002张新荣设计新型质谱离子源用于单细胞分析添加到我的日程
09:50-10:0502-O-001姜秀娥表面增强红外光谱电化学在生物膜相关的界面分析中的应用 添加到我的日程
10:05-10:2002-O-002蒲巧生低成本便携式芯片电泳仪及相关技术添加到我的日程
10:20-10:3502-O-003史烨弘激光诱导击穿光谱测定磷矿石元素分析方法研究添加到我的日程
会场:综合教学1号楼综158 主持人:张新荣,卢小泉
10:35-11:0002-I-003卢小泉Photoinduced charge transfer (PCT) kinetics and electrochemistry investigation on Porphyrin添加到我的日程
11:00-11:2502-I-004夏安东飞秒时间分辨光谱技术在有机配体保护的金属团簇体系中的应用研究添加到我的日程
11:25-11:4002-O-004郭玮炜DNA荧光银纳米簇和智能水凝胶的若干研究添加到我的日程
11:40-11:5502-O-005徐瑞娟颗粒密度及密度分布定量表征技术添加到我的日程
会场:综合教学1号楼综158 主持人:朱俊杰,龙亿涛
13:30-13:5502-I-005陈义超微体积进样方法与装置添加到我的日程
13:55-14:2002-I-006曹成喜基于MRB的电泳滴定新概念、新技术与新装置添加到我的日程
14:20-14:3502-O-006朱永春循环伏安和半经验分子轨道法研究双份A微萃取及其电催化添加到我的日程
14:35-14:5002-O-007杜捷Detection of biogenic amines based on gold nanoclusters添加到我的日程
14:50-15:0502-O-008唐宏武基于光镊和荧光检测的悬浮式生物芯片的构建及应用添加到我的日程
15:05-15:2002-O-009樊柳荫糖尿病糖化血红蛋白IEF诊断技术与装置添加到我的日程
会场:综合教学1号楼综158 主持人:陈义,曹成喜
15:20-15:4502-I-007朱俊杰等离子体共振显微镜技术在生化分析中应用添加到我的日程
15:45-16:1002-I-008龙亿涛集成化纳米通道单分子电化学检测系统添加到我的日程
16:10-16:3502-I-009颜晓梅超高灵敏流式检测仪的研制、应用及展望添加到我的日程
16:35-16:5002-O-010吕弋纳米结构对催化发光传感性能的影响添加到我的日程
16:50-17:0502-O-011王雪梅三维磁性石墨烯介孔硅复合材料对农药的吸附研究添加到我的日程
2016-07-03
会场:综合教学1号楼综158 主持人:方群,李风华
09:00-09:2502-I-010阎超高效微流电色谱的重大的进展添加到我的日程
09:25-09:5002-I-011侯贤灯原子光谱分析仪器部件和仪器研制添加到我的日程
09:50-10:0502-O-012刘宏纸微纳流控芯片添加到我的日程
10:05-10:2002-O-013张守婷Preparation and Property Study on Functional NPs/GO Nanohybrid Modified by Coordination Bond添加到我的日程
10:20-10:3502-O-014牟颖用于肿瘤干细胞分离鉴定的单细胞微流控芯片研究添加到我的日程
会场:综合教学1号楼综158 主持人:阎超,侯贤灯
10:35-11:0002-I-012方群集成化、微型化微流控高速毛细管电泳系统的研究添加到我的日程
11:00-11:1502-O-015李风华微流控离子传感分析添加到我的日程
11:15-11:3002-O-016乔俊琴核酸在IP-RP-HPLC中的保留同时受碱基组成和序列影响添加到我的日程
11:30-11:4502-O-017王丹基于手机的流质食品安全预警检测仪添加到我的日程
会场:综合教学1号楼综158 主持人:林金明,聂宗秀
13:30-13:5502-I-013聂宗秀生物颗粒质谱研制及应用添加到我的日程
13:55-14:1002-O-018孙佳姝基于微流控技术的癌症标志物早期检测添加到我的日程
14:10-14:2502-O-019吴鹏DNA调控光敏氧化在可视化检测中的应用添加到我的日程
14:25-14:4002-O-020薛中华基于石墨烯的生物分子直接/间接可视化传感新策略添加到我的日程
14:40-14:5502-O-021张洪艳基于表面等离子共振技术注射用水中细菌内毒素超高灵敏检测添加到我的日程
14:55-15:2002-I-014林金明液滴制备及其微流控芯片质谱联用装置的研制添加到我的日程
会场:综合教学1号楼 主持人:卢小泉,裘晓辉,龙亿涛,陈焕文
15:30-17:3002-P-001马标纸基分析装置上带电混合物的同时富集和分离添加到我的日程
15:30-17:3002-P-002张金懿以葡萄糖氧化酶为模板室温快速合成Mn掺杂ZnS量子点:合成机理探讨及生物传感应用添加到我的日程
15:30-17:3002-P-003张一丁基于介质阻挡放电离子源的毛细管电泳-质谱联用接口添加到我的日程
15:30-17:3002-P-004王伟用于电化学成像检测装置中的压电定位系统控制技术研究添加到我的日程
15:30-17:3002-P-005张宁基于快扫伏安法的电化学传感器检测副溶血弧菌添加到我的日程
15:30-17:3002-P-006艾晓妮基于微流控芯片细胞共培养的心肌炎症模型构建添加到我的日程
15:30-17:3002-P-007于洪翠含二苯氨基的环金属铱配合物的设计合成及其氧传感性能添加到我的日程
15:30-17:3002-P-008尹成日一种基于催化动力荧光法的痕量硒分析方法添加到我的日程
15:30-17:3002-P-009崔健颗粒计数技术在航煤颗粒污染中的应用及思考添加到我的日程
15:30-17:3002-P-010窦海洋非对称场流分离在生物大分子分离表征中的应用添加到我的日程
15:30-17:3002-P-011邹志荣Fe3O4@ZIF-8预富集-氢化物发生原子荧光光谱法超灵敏检测无机砷添加到我的日程
15:30-17:3002-P-012张伟金属配位中心对单分子电导性质的影响添加到我的日程
15:30-17:3002-P-013高丽芳离子液体薄层光波导系统在氨气检测中的应用研究添加到我的日程
15:30-17:3002-P-014熊鹰Kr吸附对超低比表面积多孔材料的比表面积和孔径分布的表征添加到我的日程
15:30-17:3002-P-015舒韵液滴注射微流控芯片中近红外量子点的可控快速制备添加到我的日程
15:30-17:3002-P-016邓宇佳电感耦合等离子体质谱和发射光谱的同时检测添加到我的日程
15:30-17:3002-P-017周翠松静电纺丝与信号放大技术的联用研究添加到我的日程
15:30-17:3002-P-018张雅洁阀上实验室-微型发射光谱系统高灵敏度检测痕量镉添加到我的日程
15:30-17:3002-P-019范高超基于p-type CuS纳米晶信号放大的光电化学免疫传感器添加到我的日程
15:30-17:3002-P-020王力宏基于DNA逻辑门的智能分子诊断技术添加到我的日程
15:30-17:3002-P-021顾海巍表面解吸常压化学电离源装置的研制添加到我的日程
15:30-17:3002-P-022程琼多孔泡沫镍电极用于乙肝表面抗原的检测添加到我的日程
15:30-17:3002-P-023李志年甲烷氧化偶联催化剂的超高通量制备与快速筛选添加到我的日程
15:30-17:3002-P-024郭梦园微流控技术在纳米合成中的应用添加到我的日程
15:30-17:3002-P-025王昆基于石墨烯与DNA保护的银纳米簇在同一免标记模板上的计算与非计算功能添加到我的日程
15:30-17:3002-P-026范英英酸性有机废水处理新方法:变废为宝添加到我的日程
15:30-17:3002-P-027刘文卿利用原位核磁共振检测技术研究固液界面反应添加到我的日程
15:30-17:3002-P-028王玲楠光电化学抗氧化容量技术的研究添加到我的日程
15:30-17:3002-P-029顾震具有高准确度的纳米通道智能数据分析方法添加到我的日程
15:30-17:3002-P-030胡槟枫基于微流控技术的全自动化学发光检测系统添加到我的日程
15:30-17:3002-P-031关怡然基于RBF神经网络的多组份液体分析系统添加到我的日程
15:30-17:3002-P-032张丽艳基于荧光分光光度计的新型发光氧传感装置添加到我的日程
15:30-17:3002-P-033姜杰便携式介质阻挡放电原子发射光谱仪的研制添加到我的日程
15:30-17:3002-P-034胡莉莉通过菱形激发和弹射减小线性离子阱中的空间电荷效应添加到我的日程
15:30-17:3002-P-035田云飞基于火花放电发射光谱的形貌和成分双模式成像添加到我的日程
15:30-17:3002-P-036安清波单层保护金纳米簇的钾离子选择性单片层电极添加到我的日程
15:30-17:3002-P-037马力坡一种多通道多用途电化学质谱联用仪添加到我的日程
15:30-17:3002-P-038刘振邦基于Cordova的跨平台蓝牙低功耗智能家居有毒气体检测装置添加到我的日程
15:30-17:3002-P-039李娟娟一步法制备静脉补铁剂及其生物相容性研究添加到我的日程
15:30-17:3002-P-040石环环基于发光检测的微流控芯片对水质中重金属毒性的分析添加到我的日程
15:30-17:3002-P-041姜春环基于表面增强拉曼技术以及宝石能谱CT成像技术的 高灵敏度活体内骨损伤诊断添加到我的日程
15:30-17:3002-P-042吴志勇基于单个纳米孔的分子穿孔电流脉冲检测系统研究添加到我的日程
15:30-17:3002-P-043韩汐基于拉曼光谱的气体多组分在线分析新技术研究添加到我的日程
15:30-17:3002-P-044张志永流动注射比浊法检测硫酸根含量添加到我的日程
15:30-17:3002-P-045胡海清DNA在微纳界面上的浓度极化堆积与芯片电泳分离添加到我的日程
15:30-17:3002-P-046温煦金纳米粒子结合固相负载技术用于激光诱导击穿光谱液体样品的检测添加到我的日程
15:30-17:3002-P-047曾星平喷雾反应装置-质谱联用在线优化paal-knorr反应添加到我的日程
15:30-17:3002-P-048修景海手性纳米粒子对映体识别的光学传感分析研究添加到我的日程
15:30-17:3002-P-049陈子轩等离子体共振显微镜技术在生化分析中应用添加到我的日程
会场:综合教学1号楼
2016-07-04
会场:综合教学1号楼综158 主持人:黄岩谊,任吉存
09:00-09:2502-I-015刘虎威脂质组学分析系统的构建和应用添加到我的日程
09:25-09:5002-I-016张春阳单分子检测技术及其生化分析应用研究添加到我的日程
09:50-10:0502-O-022汪正大气压液体阴极辉光放电发射光谱仪器研制及进展添加到我的日程
10:05-10:2002-O-023余丽双MEEKC-LVSS法测定五种黄酮类化合物添加到我的日程
10:20-10:3502-O-024宋薇超灵敏表面增强拉曼基底的构筑及其在催化与检测中的应用添加到我的日程
会场:综合教学1号楼综158 主持人:刘虎威,张春阳
10:35-11:0002-I-017黄岩谊单细胞水平的受激拉曼散射显微成像分析添加到我的日程
11:00-11:2502-I-018任吉存共振散射相关光谱理论、方法和应用添加到我的日程
11:25-11:4002-O-025吴兰基于掺杂量子点的生物相容性荧光成像介质的构建及其细胞成像应用添加到我的日程
11:40-11:5502-O-026董晓峰热辅助电喷雾萃取电离源装置的研制与表征添加到我的日程
会场:综合教学1号楼综158 主持人:陈焕文,赵冰
13:30-13:5502-I-019裘晓辉基于低能场发射电子扫描探针的10纳米线宽刻蚀技术添加到我的日程
13:55-14:2002-I-020肖丹柱内光纤多波长发光二极管阵列诱导荧光毛细管电泳仪添加到我的日程
14:20-14:3502-O-027肖华循环式自由流等电聚焦电泳与线粒体分离纯化添加到我的日程
14:35-14:5002-O-028李俊博表面增强拉曼光谱探究细胞色素c在过渡金属镍界面上电子转移添加到我的日程
14:50-15:0502-O-029刘文明基于气动微流控芯片的三维肿瘤高通量操作与分析添加到我的日程
15:05-15:2002-O-030Samrat DevaramaniPhotoinduced charge transfer kinetics of the donor-bridge-acceptor systems添加到我的日程
会场:综合教学1号楼综158 主持人:裘晓辉,肖丹
15:20-15:4502-I-021陈焕文癌变组织快速界定仪的研制及应用添加到我的日程
15:45-16:1002-I-022赵冰内燃机缸内动态燃烧场拉曼光谱检测系统添加到我的日程
16:10-16:2502-O-031朱哲欣光催化微反应器中水样光催化降解及重金属在线检测添加到我的日程
16:25-16:4002-O-032左鹏集成核酸功能化传感器的纸微流控装置的构建及应用研究添加到我的日程
会场:综合教学1号楼综158 主持人:汪尔康,张华

  报告《,目前您的日程表中共有个报告。

 

截止日期

会议注册:2016年5月15日

论文征集:2016年4月15日

会前缴费:2016年5月15日

忘记密码

中国化学会秘书处

地  址:北京市中关村北一街2号
联系电话:+86-10-82449177
邮政编码:100190


传  真:+86-10-62568157
网  址:http://www.chemsoc.org.cn


个人会员:qiaoqinzhao@iccas.ac.cn
学术交流:cmdeng@iccas.ac.cn
国际事务:hanlidong@iccas.ac.cn
化学竞赛:wlbai@iccas.ac.cn


学术奖励:yuehe@iccas.ac.cn
期  刊:haolinxiao@iccas.ac.cn
单位会员:wangyr@iccas.ac.cn
产学研合作与促进:binjiao@iccas.ac.cn


All Rights Reserved by the Chinese Chemical Society 中国化学会 版权所有 京ICP备05002797号

门户网站、会员系统、会议系统 技术支持:深圳市学术科技有限公司 www.szac.cn